This demonstration page uses our WeatherBlox Daily Observations layout. Learn more.

Left ArrowRight Arrow

Hourly Observations for November 8, 2018

Temp ( °F °C ) Dew Point ( °F °C ) Humidity (%) Winds ( mph kmh ) Pressure ( in mb ) Visibility ( mi km ) Precip ( " mm )
12:53 am 00:53 Partly Cloudy 47 8.3 44 6.7 90 90 E 7 11 30.01 1016 10 16 0.00 0.00
1:02 am 01:02 Mostly Cloudy 48 8.9 45 7.2 89 89 E 7 11 30.06 1018 10 16 0.00 0.00
1:22 am 01:22 Cloudy 49 9.4 46 7.8 90 90 ENE 5 7 30.06 1018 10 16 0.00 0.00
1:53 am 01:53 Cloudy 50 10 46 7.8 86 86 E 6 9 30.01 1016 10 16 0.00 0.00
2:53 am 02:53 Cloudy 50 10 46 7.8 86 86 E 6 9 30.00 1016 10 16 0.00 0.00
3:53 am 03:53 Cloudy 50 10 46 7.8 86 86 E 7 11 29.99 1016 10 16 0.00 0.00
4:53 am 04:53 Cloudy 49 9.4 46 7.8 90 90 ENE 7 11 30.00 1016 7 11 0.00 0.00
5:53 am 05:53 Cloudy 49 9.4 46 7.8 90 90 ENE 5 7 30.02 1017 8 13 0.00 0.00
6:07 am 06:07 Cloudy 49 9.4 46 7.8 90 90 ENE 3 6 30.09 1019 8 13 0.00 0.00
6:43 am 06:43 Cloudy 49 9.4 46 7.8 90 90 ENE 3 6 30.06 1018 7 11 0.00 0.00
6:53 am 06:53 Cloudy with Mist and Fog 49 9.4 46 7.8 90 90 ENE 5 7 30.03 1017 6 10 0.00 0.00
7:53 am 07:53 Cloudy with Mist and Fog 48 8.9 47 8.3 96 96 NE 6 9 30.04 1017 2 3 0.00 0.00
8:11 am 08:11 Cloudy with Mist and Fog 48 8.9 47 8.3 96 96 NE 5 7 30.09 1019 2 3 0.00 0.00
8:53 am 08:53 Cloudy with Mist and Fog 49 9.4 47 8.3 93 93 NE 5 7 30.06 1018 2 3 0.00 0.00
8:59 am 08:59 Cloudy with Mist and Fog 49 9.4 46 7.8 90 90 NNE 5 7 30.12 1020 3 5 0.00 0.00
9:07 am 09:07 Cloudy with Mist and Fog 49 9.4 47 8.3 93 93 NE 6 9 30.12 1020 3 5 0.00 0.00
9:53 am 09:53 Cloudy with Mist and Fog 50 10 47 8.3 89 89 NE 7 11 30.07 1018 5 8 0.00 0.00
10:49 am 10:49 Cloudy 52 11 46 8 82 82 N 6 9 30.12 1020 10 16 0.00 0.00
10:53 am 10:53 Cloudy 53 11.7 47 8.3 80 80 NNE 7 11 30.06 1018 10 16 0.00 0.00
11:53 am 11:53 Cloudy 52 11.1 47 8.3 83 83 NE 3 6 30.04 1017 10 16 0.00 0.00
12:53 pm 12:53 Cloudy 54 12.2 47 8.3 77 77 Calm 30.01 1016 10 16 0.00 0.00
1:44 pm 13:44 Cloudy 54 12.2 48 8.9 80 80 E 3 6 30.00 1016 10 16 0.00 0.00
1:53 pm 13:53 Cloudy 54 12.2 48 8.9 80 80 SE 3 6 29.97 1015 10 16 0.00 0.00
2:53 pm 14:53 Cloudy 56 13.3 49 9.4 77 77 ENE 5 7 29.96 1015 10 16 0.00 0.00
3:00 pm 15:00 Cloudy 56 13.3 49 9.4 77 77 E 5 7 30.00 1016 10 16 0.00 0.00
3:12 pm 15:12 Cloudy 55 12.8 48 8.9 77 77 E 6 9 29.97 1015 10 16 0.00 0.00
3:53 pm 15:53 Cloudy 56 13.3 48 8.9 75 75 ENE 6 9 29.95 1014 10 16 0.00 0.00
4:53 pm 16:53 Cloudy 53 11.7 48 8.9 83 83 ENE 9 15 29.96 1015 10 16 0.00 0.00
5:15 pm 17:15 Cloudy 53 11.7 48 8.9 83 83 ENE 10 17 30.00 1016 10 16 0.00 0.00
5:53 pm 17:53 Cloudy 53 11.7 48 8.9 83 83 ENE 10 17 29.98 1015 10 16 0.00 0.00
6:53 pm 18:53 Cloudy 51 10.6 47 8.3 86 86 ENE 12 19 30.02 1017 10 16 0.00 0.00
7:18 pm 19:18 Cloudy 51 10.6 46 7.8 83 83 ENE 7 11 30.09 1019 10 16 0.00 0.00
7:53 pm 19:53 Cloudy 51 10.6 46 7.8 83 83 ENE 10 17 30.06 1018 10 16 0.00 0.00
8:53 pm 20:53 Cloudy 51 10.6 47 8.3 86 86 ENE 10 17 30.10 1019 10 16 0.00 0.00
9:01 pm 21:01 Cloudy 51 10.6 47 8.3 86 86 ENE 7 11 30.15 1021 10 16 0.00 0.00
9:10 pm 21:10 Cloudy 51 10.6 47 8.3 86 86 NE 9 15 30.15 1021 7 11 0.00 0.00
9:24 pm 21:24 Cloudy with Mist and Fog 50 10 48 8.9 93 93 NE 8 13 30.15 1021 4 6 0.00 0.00
9:53 pm 21:53 Cloudy 50 10 47 8.3 89 89 ENE 10 17 30.12 1020 10 16 0.00 0.00
10:00 pm 22:00 Cloudy 50 10 47 8.3 89 89 ENE 10 17 30.18 1022 10 16 0.00 0.00
10:08 pm 22:08 Cloudy 50 10 47 8.3 89 89 ENE 7 11 30.18 1022 10 16 0.00 0.00
10:30 pm 22:30 Cloudy 50 10 47 8.3 89 89 NE 8 13 30.18 1022 10 16 0.00 0.00
10:41 pm 22:41 Cloudy 50 10 47 8.3 89 89 NE 8 13 30.18 1022 10 16 0.00 0.00
10:53 pm 22:53 Cloudy 50 10 47 8.3 89 89 NE 10 17 30.14 1021 10 16 0.00 0.00
11:06 pm 23:06 Cloudy 50 10 46 7.8 86 86 NE 10 17 30.18 1022 9 14 0.00 0.00
11:26 pm 23:26 Cloudy 50 10 46 7.8 86 86 NE 10 17 30.18 1022 10 16 0.00 0.00
11:53 pm 23:53 Cloudy 50 10 45 7.2 83 83 ENE 13 20 30.16 1021 10 16 0.00 0.00

Powered by AerisWeather